• Join FlightAware (Why Join?)
  • Login
  • US Flag 
08:57PM EST


 

Airport Tracker/Info


-or-


 

Live Flight TrackerFlight Track Log ✈ FDX1234 ✈ 04-Oct-2013 ✈ KIAD - KMEM

Flight Track Log - Related Links

Times and Time Zones

All times are in EDT time to prevent confusion due to time zone crossing. See the FDX1234 flight status page for this flight to view local times or setup timezone preferences in your user account.

Time Position Orientation Groundspeed Altitude Reporting Facility
EDT Latitude Longitude Course Direction KTS MPH feet Rate Location/Type
11:10PM 38.9480 -77.5080 280° West 163 188 1,200  Level FlightAware
11:11PM 38.9390 -77.5500 255° West 213 245 1,800 1,200 Climbing FlightAware
11:11PM 38.9280 -77.5900 251° West 247 284 2,600 1,860 Climbing FlightAware
11:12PM 38.9230 -77.6100 252° West 255 293 3,200 2,700 Climbing FlightAware
11:12PM 38.9180 -77.6410 258° West 261 300 4,200 2,820 Climbing FlightAware
11:12PM 38.9140 -77.6710 260° West 267 307 5,100 2,880 Climbing FlightAware
11:13PM 38.9100 -77.7040 261° West 267 307 6,200 3,000 Climbing FlightAware
11:13PM 38.9080 -77.7280 264° West 269 310 6,900 2,700 Climbing FlightAware
11:13PM 38.9040 -77.7600 261° West 274 315 7,800 2,520 Climbing FlightAware
11:14PM 38.9020 -77.7930 266° West 279 321 8,600 2,820 Climbing FlightAware
11:14PM 38.8980 -77.8250 261° West 277 319 9,700 2,280 Climbing FlightAware
11:15PM 38.8900 -77.8920 261° West 303 349 10,900 1,680 Climbing FlightAware
11:15PM 38.8840 -77.9550 263° West 330 380 11,800 1,560 Climbing FlightAware
11:16PM 38.8770 -78.0170 262° West 349 402 12,600 1,440 Climbing FlightAware
11:16PM 38.8660 -78.1110 261° West 379 436 13,600 1,620 Climbing FlightAware
11:17PM 38.8570 -78.1920 262° West 390 449 14,800 1,980 Climbing FlightAware
11:18PM 38.8540 -78.2900 268° West 398 458 16,200 2,040 Climbing FlightAware
11:18PM 38.8530 -78.3770 269° West 401 461 17,500 1,980 Climbing FlightAware
11:19PM 38.8400 -78.4620 259° West 409 471 18,600 1,920 Climbing FlightAware
11:19PM 38.8250 -78.5420 256° West 410 472 19,800 1,860 Climbing FlightAware
11:20PM 38.8120 -78.6200 258° West 414 476 20,700 1,560 Climbing FlightAware
11:21PM 38.8030 -78.6840 260° West 414 476 21,600 1,620 Climbing FlightAware
11:21PM 38.7850 -78.7980 259° West 421 484 22,700 1,500 Climbing FlightAware
11:22PM 38.7720 -78.8720 257° West 428 493 23,400 1,380 Climbing FlightAware
11:22PM 38.7570 -78.9550 257° West 432 497 24,200 1,320 Climbing FlightAware
11:23PM 38.7400 -79.0590 258° West 438 504 25,100 1,440 Climbing FlightAware
11:24PM 38.7270 -79.1340 257° West 437 503 25,900 1,440 Climbing FlightAware
11:24PM 38.7120 -79.2230 258° West 439 505 26,700 1,080 Climbing FlightAware
11:25PM 38.6960 -79.3160 258° West 446 513 27,200 1,020 Climbing FlightAware
11:25PM 38.6810 -79.4100 258° West 452 520 28,000 1,020 Climbing FlightAware
11:26PM 38.6620 -79.5250 258° West 459 528 28,600 840 Climbing FlightAware
11:27PM 38.6460 -79.6210 258° West 463 533 29,100 780 Climbing FlightAware
11:27PM 38.6300 -79.7160 258° West 468 539 29,600 900 Climbing FlightAware
11:28PM 38.6140 -79.8080 257° West 471 542 30,200 1,320 Climbing FlightAware
11:28PM 38.5980 -79.8920 256° West 463 533 31,100 1,500 Climbing FlightAware
11:29PM 38.5770 -80.0070 257° West 459 528 32,100 1,080 Climbing FlightAware
11:30PM 38.5500 -80.1590 257° West 458 527 33,000 960 Climbing FlightAware
11:31PM 38.5260 -80.2880 257° West 454 522 33,900 720 Climbing FlightAware
11:31PM 38.5110 -80.3710 257° West 452 520 34,000 60 Climbing FlightAware
11:32PM 38.4920 -80.4700 256° West 454 522 34,000  Level FlightAware
11:33PM 38.4740 -80.5660 257° West 453 521 34,000  Level FlightAware
11:33PM 38.4730 -80.5710 256° West 453 521 34,000  Level FlightAware
11:34PM 38.4420 -80.7370 257° West 452 520 34,000 480 Level FlightAware
11:34PM 38.4220 -80.8380 256° West 450 518 34,600 840 Climbing FlightAware
11:35PM 38.4070 -80.9170 256° West 448 516 35,000 960 Climbing FlightAware
11:35PM 38.3890 -81.0140 257° West 443 510 35,700 780 Climbing FlightAware
11:36PM 38.3700 -81.1080 256° West 440 506 36,000 240 Climbing FlightAware
11:37PM 38.3490 -81.1950 253° West 439 505 36,000  Level FlightAware
11:37PM 38.3270 -81.2850 253° West 441 507 36,000  Level FlightAware
11:38PM 38.3168 -81.3282 253° West 442 509 36,000  Level FlightAware ADS-B
11:38PM 38.2984 -81.4030 253° West 443 510 36,000  Level FlightAware ADS-B
11:39PM 38.2665 -81.5342 253° West 445 512 36,000  Level FlightAware ADS-B
11:39PM 38.2475 -81.6111 253° West 443 510 36,000  Level FlightAware ADS-B
11:40PM 38.2287 -81.6875 253° West 443 510 36,000  Level FlightAware ADS-B
11:40PM 38.2094 -81.7628 252° West 446 513 36,000  Level FlightAware ADS-B
11:41PM 38.1880 -81.8384 250° West 447 514 36,000  Level FlightAware ADS-B
11:42PM 38.1663 -81.9141 250° West 446 513 36,000  Level FlightAware ADS-B
11:42PM 38.1446 -81.9906 250° West 445 512 36,000  Level FlightAware ADS-B
11:43PM 38.1213 -82.0725 250° West 445 512 36,000  Level FlightAware ADS-B
11:43PM 38.1000 -82.1476 250° West 445 512 36,000  Level FlightAware ADS-B
11:44PM 38.0766 -82.2306 250° West 444 511 36,000  Level FlightAware ADS-B
11:44PM 38.0541 -82.3089 250° West 444 511 36,000  Level FlightAware ADS-B
11:45PM 38.0317 -82.3875 250° West 444 511 36,000  Level FlightAware ADS-B
11:45PM 38.0103 -82.4625 250° West 444 511 36,000  Level FlightAware ADS-B
11:46PM 37.9772 -82.5769 250° West 444 511 36,000  Level FlightAware ADS-B
11:47PM 37.9541 -82.6577 250° West 444 511 36,000  Level FlightAware ADS-B
11:47PM 37.9323 -82.7330 250° West 445 512 36,000  Level FlightAware ADS-B
11:48PM 37.9020 -82.8350 249° West 445 512 36,000  Level FlightAware
11:48PM 37.8787 -82.9160 250° West 446 513 36,000  Level FlightAware ADS-B
11:49PM 37.8563 -82.9897 249° West 445 512 36,000  Level FlightAware ADS-B
11:49PM 37.8338 -83.0639 249° West 445 512 36,000  Level FlightAware ADS-B
11:50PM 37.8109 -83.1396 249° West 446 513 36,000  Level FlightAware ADS-B
11:50PM 37.7884 -83.2139 249° West 446 513 36,000  Level FlightAware ADS-B
11:51PM 37.7661 -83.2876 249° West 446 513 36,000  Level FlightAware ADS-B
11:51PM 37.7446 -83.3628 250° West 445 512 36,000  Level FlightAware ADS-B
11:52PM 37.7240 -83.4350 250° West 445 512 36,000  Level FlightAware
11:53PM 37.6952 -83.5341 250° West 445 512 36,000  Level FlightAware ADS-B
11:53PM 37.6645 -83.6393 250° West 445 512 36,000  Level FlightAware ADS-B
11:54PM 37.6339 -83.7449 250° West 445 512 36,000  Level FlightAware ADS-B
11:55PM 37.5990 -83.8650 250° West 444 511 36,000  Level FlightAware
11:55PM 37.5760 -83.9430 250° West 443 510 36,000  Level FlightAware
11:56PM 37.5510 -84.0260 249° West 441 507 36,000  Level FlightAware
11:57PM 37.5240 -84.1180 250° West 440 506 36,000  Level FlightAware
11:57PM 37.4990 -84.2010 249° West 440 506 36,000  Level FlightAware
11:58PM 37.4740 -84.2860 250° West 440 506 36,000  Level FlightAware
11:58PM 37.4460 -84.3720 248° West 439 505 36,000  Level FlightAware
11:59PM 37.4220 -84.4480 248° West 438 504 36,000  Level FlightAware
11:59PM 37.3938 -84.5387 249° West 440 506 36,000  Level FlightAware ADS-B
12:00AM 37.3707 -84.6123 248° West 441 507 36,000  Level FlightAware ADS-B
12:01AM 37.3463 -84.6892 248° West 440 506 36,000  Level FlightAware ADS-B
12:01AM 37.3162 -84.7838 248° West 440 506 36,000  Level FlightAware ADS-B
12:02AM 37.2926 -84.8580 248° West 441 507 36,000  Level FlightAware ADS-B
12:02AM 37.2697 -84.9298 248° West 441 507 36,000  Level FlightAware ADS-B
12:03AM 37.2467 -85.0020 248° West 441 507 36,000  Level FlightAware ADS-B
12:03AM 37.2236 -85.0744 248° West 441 507 36,000  Level FlightAware ADS-B
12:03AM 37.2112 -85.1140 249° West 440 506 36,000  Level FlightAware ADS-B
12:04AM 37.1919 -85.2038 255° West 440 506 36,000  Level FlightAware ADS-B
12:05AM 37.1718 -85.2999 255° West 440 506 36,000  Level FlightAware ADS-B
12:05AM 37.1557 -85.3777 255° West 442 509 36,000  Level FlightAware ADS-B
12:06AM 37.1388 -85.4595 255° West 442 509 36,000  Level FlightAware ADS-B
12:06AM 37.1232 -85.5342 255° West 442 509 36,000  Level FlightAware ADS-B
12:07AM 37.1072 -85.6101 255° West 442 509 36,000  Level FlightAware ADS-B
12:07AM 37.0892 -85.6952 255° West 442 509 36,000  Level FlightAware ADS-B
12:08AM 37.0732 -85.7716 255° West 442 509 36,000  Level FlightAware ADS-B
12:08AM 37.0565 -85.8500 255° West 441 507 36,000  Level FlightAware ADS-B
12:09AM 37.0240 -86.0020 255° West 438 504 36,000  Level FlightAware
12:10AM 37.0080 -86.0810 256° West 436 502 36,000  Level FlightAware
12:11AM 36.9840 -86.1903 255° West 437 503 36,000  Level FlightAware ADS-B
12:11AM 36.9660 -86.2738 255° West 436 502 36,000 -120 Level FlightAware ADS-B
12:12AM 36.9541 -86.3260 254° West 435 501 35,900 -540 Descending FlightAware ADS-B
12:12AM 36.9432 -86.3601 248° West 433 498 35,700 -780 Descending FlightAware ADS-B
12:12AM 36.9132 -86.4316 242° Southwest 433 498 35,300 -720 Descending FlightAware ADS-B
12:13AM 36.8849 -86.4993 242° Southwest 436 502 35,000 -300 Descending FlightAware ADS-B
12:13AM 36.8559 -86.5676 242° Southwest 442 509 35,000  Level FlightAware ADS-B
12:14AM 36.8271 -86.6353 242° Southwest 442 509 35,000  Level FlightAware ADS-B
12:14AM 36.7981 -86.7031 242° Southwest 443 510 35,000  Level FlightAware ADS-B
12:15AM 36.7646 -86.7812 242° Southwest 444 511 35,000  Level FlightAware ADS-B
12:16AM 36.7357 -86.8493 242° Southwest 444 511 35,000 -420 Level FlightAware ADS-B
12:16AM 36.6810 -86.9770 242° Southwest 433 498 34,400 -780 Descending FlightAware
12:17AM 36.6490 -87.0500 241° Southwest 435 501 33,900 -900 Descending FlightAware
12:18AM 36.6160 -87.1270 242° Southwest 434 499 33,400 -900 Descending FlightAware
12:18AM 36.5840 -87.2010 242° Southwest 437 503 32,900 -960 Descending FlightAware
12:19AM 36.5490 -87.2820 242° Southwest 434 499 32,300 -780 Descending FlightAware
12:19AM 36.5170 -87.3560 242° Southwest 438 504 32,000 -300 Descending FlightAware
12:20AM 36.4830 -87.4350 242° Southwest 442 509 32,000  Level FlightAware
12:20AM 36.4550 -87.4970 241° Southwest 443 510 32,000  Level FlightAware
12:21AM 36.4240 -87.5680 242° Southwest 443 510 32,000  Level FlightAware
12:22AM 36.3900 -87.6450 241° Southwest 429 494 32,000  Level FlightAware
12:22AM 36.3540 -87.7270 241° Southwest 430 495 32,000  Level FlightAware
12:23AM 36.3190 -87.8060 241° Southwest 430 495 32,000  Level FlightAware
12:23AM 36.2850 -87.8820 241° Southwest 430 495 32,000 -420 Level FlightAware
12:24AM 36.2480 -87.9620 240° Southwest 428 493 31,500 -1,080 Descending FlightAware
12:25AM 36.2110 -88.0420 240° Southwest 401 461 30,700 -600 Descending FlightAware
12:25AM 36.1770 -88.1120 239° Southwest 401 461 30,700 -840 Level FlightAware
12:26AM 36.1410 -88.1940 241° Southwest 396 456 29,600 -900 Descending FlightAware
12:27AM 36.1120 -88.2540 239° Southwest 396 456 29,600 -1,620 Level FlightAware
12:27AM 36.0660 -88.3590 242° Southwest 411 473 27,500 -2,160 Descending FlightAware
12:28AM 36.0320 -88.4310 240° Southwest 407 468 26,800 -1,200 Descending FlightAware
12:29AM 35.9970 -88.5060 240° Southwest 403 464 26,100 -1,380 Descending FlightAware
12:29AM 35.9690 -88.5650 240° Southwest 397 457 25,300 -1,980 Descending FlightAware
12:30AM 35.9350 -88.6370 240° Southwest 390 449 23,900 -2,280 Descending FlightAware
12:30AM 35.9030 -88.7050 240° Southwest 384 442 22,600 -2,340 Descending FlightAware
12:31AM 35.8740 -88.7680 240° Southwest 379 436 21,300 -2,160 Descending FlightAware
12:31AM 35.8420 -88.8340 239° Southwest 376 433 20,100 -2,220 Descending FlightAware
12:32AM 35.8110 -88.9010 240° Southwest 375 432 18,700 -2,340 Descending FlightAware
12:33AM 35.7810 -88.9650 240° Southwest 357 411 17,400 -2,040 Descending FlightAware
12:33AM 35.7550 -89.0210 240° Southwest 330 380 16,400 -1,860 Descending FlightAware
12:34AM 35.7260 -89.0760 237° Southwest 305 351 15,300 -1,800 Descending FlightAware
12:34AM 35.6910 -89.1200 226° Southwest 297 342 14,300 -1,800 Descending FlightAware
12:35AM 35.6590 -89.1640 228° Southwest 297 342 13,200 -1,800 Descending FlightAware
12:35AM 35.6270 -89.2040 225° Southwest 295 339 12,300 -1,620 Descending FlightAware
12:36AM 35.5940 -89.2480 227° Southwest 285 328 11,400 -1,140 Descending FlightAware
12:37AM 35.5620 -89.2870 225° Southwest 270 311 11,000 -720 Descending FlightAware
12:37AM 35.5300 -89.3290 227° Southwest 274 315 10,600 -780 Descending FlightAware
12:38AM 35.5150 -89.3500 229° Southwest 271 312 10,300 -960 Descending FlightAware
12:38AM 35.5080 -89.3670 243° Southwest 266 306 10,100 -780 Descending FlightAware
12:38AM 35.5010 -89.3960 253° West 257 296 9,900 -1,080 Descending FlightAware
12:38AM 35.4950 -89.4270 257° West 253 291 9,400 -1,320 Descending FlightAware
12:39AM 35.4910 -89.4490 257° West 253 291 9,100 -1,080 Descending FlightAware
12:39AM 35.4870 -89.4750 259° West 248 285 8,800 -1,020 Descending FlightAware
12:39AM 35.4840 -89.5080 264° West 228 262 8,400 -1,080 Descending FlightAware
12:40AM 35.4820 -89.5350 265° West 224 258 8,000 -1,260 Descending FlightAware
12:40AM 35.4800 -89.5680 266° West 223 257 7,400 -1,260 Descending FlightAware
12:41AM 35.4780 -89.5960 265° West 223 257 7,000 -540 Descending FlightAware
12:41AM 35.4760 -89.6230 265° West 223 257 7,000 -960 Level FlightAware
12:42AM 35.4750 -89.6710 269° West 214 246 6,000 -1,380 Descending FlightAware
12:42AM 35.4760 -89.6940 273° West 198 228 5,700 -1,080 Descending FlightAware
12:42AM 35.4780 -89.7190 276° West 193 222 5,300 -960 Descending FlightAware
12:43AM 35.4810 -89.7430 279° West 175 201 5,000 -600 Descending FlightAware
12:43AM 35.4830 -89.7610 278° West 168 193 4,900 -480 Descending FlightAware
12:43AM 35.4850 -89.7810 277° West 163 188 4,700 -480 Descending FlightAware
12:44AM 35.4870 -89.8050 276° West 164 189 4,500 -1,380 Descending FlightAware
12:45AM 35.4922 -89.8419 276° West 171 197 3,200 -1,020 Descending Memphis Center
12:46AM 35.4569 -89.8753 218° Southwest 143 165 2,900 -600 Descending Memphis Center
12:47AM 35.4217 -89.9036 213° Southwest 149 171 2,000 -480 Descending Memphis Center
12:48AM 35.3864 -89.9344 215° Southwest 159 183 2,000  Level Memphis Center
12:49AM 35.3531 -89.9650 217° Southwest 159 183 2,000  Level Memphis Center
12:50AM 35.3175 -89.9831 203° Southwest 159 183 2,000  Level Memphis Center
12:51AM 35.2500 -89.9833 180° South 148 170 2,000  Level KMEM
12:52AM 35.2167 -89.9667 158° South 147 169 2,000  Level KMEM
12:53AM 35.1667 -89.9667 180° South 149 171 2,000 -60 Level KMEM
12:54AM 35.1333 -89.9667 180° South 150 173 1,900 -420 Descending KMEM
12:55AM 35.1000 -89.9667 180° South 133 153 1,200 -720 Descending KMEM
12:56AM 35.0667 -89.9667 180° South 129 148 600 -720 Descending KMEM
12:58AM 35.0424 -89.9767 345° North  Level Estimated
01:05AM 35.0424 -89.9767 345° North  Level Estimated
01:06AM 35.0424 -89.9767 345° North  Level Estimated
01:07AM 35.0424 -89.9767 345° North  Level Estimated
01:08AM 35.0424 -89.9767 345° North  Level Estimated
01:09AM 35.0424 -89.9767 345° North  Level Estimated